This is the latest recevied weather packets stored in our database for station/object EA6AMI-5. If no packets are shown the sender has not sent any weather packets the latest 10 day(s).
| Time | Temp. | Humidity | Pressure | Rain* | Wind** | Luminosity | Snow |
|---|---|---|---|---|---|---|---|
| 1777703223 | 16.11° C | 82% | 1023.1 hPa | 0 mm | - | 75 W/m² | - |
| 1777702683 | 16.11° C | 81% | 1022.8 hPa | 0 mm | - | 80 W/m² | - |
| 1777702143 | 15.56° C | 81% | 1022.8 hPa | 0 mm | - | 74 W/m² | - |
| 1777701603 | 15.56° C | 81% | 1022.8 hPa | 0 mm | - | 69 W/m² | - |
| 1777701244 | 15° C | 82% | 1022.6 hPa | 0 mm | - | 57 W/m² | - |
| 1777700704 | 14.44° C | 83% | 1022.5 hPa | 0 mm | - | 39 W/m² | - |
| 1777700163 | 14.44° C | 85% | 1022.7 hPa | 0 mm | - | 37 W/m² | - |
| 1777699623 | 14.44° C | 85% | 1022.4 hPa | 0 mm | - | 35 W/m² | - |
| 1777699084 | 13.89° C | 86% | 1022.5 hPa | 0 mm | - | 21 W/m² | - |
| 1777698544 | 13.89° C | 86% | 1022.4 hPa | 0 mm | - | 10 W/m² | - |
| 1777698003 | 13.89° C | 86% | 1022.4 hPa | 0 mm | - | 6 W/m² | - |
| 1777697643 | 13.89° C | 86% | 1022.4 hPa | 0 mm | - | 3 W/m² | - |
| 1777697103 | 14.44° C | 85% | 1022.2 hPa | 0 mm | - | 1 W/m² | - |
| 1777696563 | 14.44° C | 86% | 1022.3 hPa | 0 mm | - | 0 W/m² | - |
| 1777696023 | 14.44° C | 85% | 1022.5 hPa | 0 mm | - | 0 W/m² | - |
| 1777695483 | 14.44° C | 85% | 1022.4 hPa | 0 mm | - | 0 W/m² | - |
| 1777694943 | 14.44° C | 85% | 1022.4 hPa | 0 mm | - | 0 W/m² | - |
| 1777694403 | 15° C | 85% | 1022.4 hPa | 0 mm | - | 0 W/m² | - |
| 1777694043 | 15° C | 85% | 1022.4 hPa | 0 mm | - | 0 W/m² | - |
| 1777693503 | 15° C | 85% | 1022.6 hPa | 0 mm | - | 0 W/m² | - |
| 1777692963 | 15° C | 85% | 1022.5 hPa | 0 mm | - | 0 W/m² | - |
| 1777692423 | 15° C | 85% | 1022.6 hPa | 0 mm | - | 0 W/m² | - |
| 1777691883 | 15° C | 84% | 1022.7 hPa | 0 mm | - | 0 W/m² | - |
| 1777691343 | 15° C | 84% | 1022.7 hPa | 0 mm | - | 0 W/m² | - |
| 1777690804 | 15° C | 83% | 1022.5 hPa | 0 mm | - | 0 W/m² | - |
* Rain latest hour (hover to see other rain measurements)
** Current wind speed in m/s (hover to see current wind gust speed)